[Iaude] MPEC U40: 2016 UP5 [a=2.83,e=0.64,i=4.1,H=24.4]

mpec at si.edu mpec at si.edu
Sat Oct 22 19:29:46 EDT 2016


M.P.E.C. 2016-U40                                Issued 2016 Oct. 22, 23:24 UT
 
     The Minor Planet Electronic Circulars contain information on unusual
         minor planets and routine data on comets.  They are published
    on behalf of Division F of the International Astronomical Union by the
          Minor Planet Center, Smithsonian Astrophysical Observatory,
                          Cambridge, MA 02138, U.S.A.

             Prepared using the Tamkin Foundation Computer Network

                              MPC at CFA.HARVARD.EDU
            URL http://www.minorplanetcenter.net/    ISSN 1523-6714


                                   2016 UP5
 
Observations:
     K16U05P* C2016 10 20.44249 02 13 58.72 +31 48 23.1          18.1 wLEU040T05
     K16U05P  C2016 10 20.47735 02 14 45.25 +31 53 52.0          18.0 wLEU040T05
     K16U05P  C2016 10 20.47884 02 14 47.28 +31 54 04.4          18.1 wLEU040T05
     K16U05P  C2016 10 20.49882 02 15 13.93 +31 57 07.6          17.8 wLEU040T05
     K16U05P KC2016 10 20.76094 02 21 41.20 +32 32 34.3                qEU040J95
     K16U05P KC2016 10 20.76307 02 21 44.10 +32 32 53.7                qEU040J95
     K16U05P KC2016 10 20.76514 02 21 46.94 +32 33 13.1          18.2 RqEU040J95
     K16U05P KC2016 10 20.79628 02 22 28.56 +32 38 15.0          18.3 VSEU040C43
     K16U05P KC2016 10 20.79860 02 22 31.66 +32 38 36.0          18.2 VSEU040C43
     K16U05P KC2016 10 20.80100 02 22 34.89 +32 38 57.0          18.2 VSEU040C43
     K16U05P KC2016 10 20.93561 02 25 32.09 +32 58 01.1          18.3 VqEU040J69
     K16U05P KC2016 10 20.94144 02 25 39.47 +32 58 49.5          18.2 VqEU040J69
     K16U05P KC2016 10 20.94726 02 25 46.85 +32 59 37.5          18.4 VqEU040J69
     K16U05P KC2016 10 21.04200 02 27 45.11 +33 12 09.8                qEU040J95
     K16U05P KC2016 10 21.04318 02 27 46.57 +33 12 19.4                qEU040J95
     K16U05P KC2016 10 21.04484 02 27 48.65 +33 12 32.0          18.3 RqEU040J95
     K16U05P  C2016 10 21.25987 02 32 33.22 +33 40 28.2          18.0 RoEU040926
     K16U05P  C2016 10 21.26167 02 32 35.31 +33 40 41.5          18.3 RoEU040926
     K16U05P  C2016 10 21.26347 02 32 37.44 +33 40 55.1          18.1 RoEU040926
     K16U05P  C2016 10 21.29890 02 33 18.58 +33 45 11.3          18.1 VqEU040703
     K16U05P  C2016 10 21.30498 02 33 25.55 +33 45 55.2          18.3 VqEU040703
     K16U05P  C2016 10 21.31107 02 33 32.54 +33 46 39.6          18.1 VqEU040703
     K16U05P  C2016 10 21.31716 02 33 39.66 +33 47 22.6          18.4 VqEU040703
     K16U05P KC2016 10 21.37694 02 34 44.88 +33 53 39.9          18.2 RqEU040H36
     K16U05P KC2016 10 21.38084 02 34 49.44 +33 54 05.8          18.3 RqEU040H36
     K16U05P KC2016 10 21.38863 02 34 58.43 +33 54 56.6          18.3 RqEU040H36
     K16U05P KC2016 10 21.39228 02 35 02.66 +33 55 20.2          18.4 RqEU040H36
     K16U05P KC2016 10 21.40041 02 35 12.11 +33 56 12.9          18.4 RqEU040H36
     K16U05P  C2016 10 21.50000 02 37 09.04 +34 07 22.0          18.2 RoEU040926
     K16U05P  C2016 10 21.50179 02 37 11.14 +34 07 32.9          18.2 RoEU040926
     K16U05P  C2016 10 21.50360 02 37 13.21 +34 07 43.8          18.1 RoEU040926
     K16U05P KC2016 10 21.85069 02 44 23.53 +34 43 17.6          19.2 VqEU040C77
     K16U05P KC2016 10 21.85768 02 44 31.16 +34 44 02.2          18.6 VqEU040C77
     K16U05P KC2016 10 21.86434 02 44 38.39 +34 44 43.6          18.8 VqEU040C77
     K16U05P KC2016 10 21.91324 02 45 30.04 +34 49 51.3          18.2 RqEU040160
     K16U05P KC2016 10 21.91746 02 45 34.46 +34 50 16.6          18.2 RqEU040160
     K16U05P KC2016 10 21.92168 02 45 38.88 +34 50 42.3          17.9 RqEU040160
     K16U05P KC2016 10 21.94708 02 46 04.73 +34 53 06.9          18.8 VSEU040595
     K16U05P KC2016 10 21.95039 02 46 08.14 +34 53 26.0                SEU040595
     K16U05P KC2016 10 21.95316 02 46 11.73 +34 53 47.8          18.6 RqEU040104
     K16U05P KC2016 10 21.95371 02 46 11.61 +34 53 45.4                SEU040595
     K16U05P KC2016 10 21.95592 02 46 14.58 +34 54 04.2          18.2 RqEU040104
     K16U05P KC2016 10 21.96419 02 46 23.15 +34 54 52.0          18.4 RqEU040104
     K16U05P KC2016 10 22.01212 02 47 15.05 +34 59 24.8          18.7 VqEU040958
     K16U05P KC2016 10 22.01815 02 47 21.21 +34 59 58.8          19.1 VqEU040958
     K16U05P KC2016 10 22.02418 02 47 27.37 +35 00 32.4          19.0 VqEU040958
     K16U05P  C2016 10 22.48554 02 55 22.07 +35 40 11.8          18.7 RoEU040926
     K16U05P  C2016 10 22.48788 02 55 24.27 +35 40 21.7          18.8 RoEU040926
     K16U05P  C2016 10 22.49022 02 55 26.53 +35 40 31.5          18.7 RoEU040926
 
Observer details:
104 San Marcello Pistoiese.  Observers P. Bacci, M. Maestripieri.  Measurers
    P. Bacci, L. Tesi, G. Fagioli.  0.60-m f/4 reflector + CCD.
160 Castelmartini.  Observers M. Jaeger, E. Prosperi, S. Prosperi, W. Vollmann.
    Measurer E. Prosperi.  0.35-m f/10 Schmidt-Cassegrain + CCD.
595 Farra d'Isonzo.  Observer E. Pettarin.  0.61-m f/4.0 reflector + CCD.
703 Catalina Sky Survey.  Observer G. J. Leonard.  Measurers E. J. Christensen,
    D. C. Fuls, A. R. Gibbs, A. D. Grauer, J. A. Johnson, R. A. Kowalski,
    S. M. Larson, G. J. Leonard, R. G. Matheny, R. L. Seaman, F. C. Shelly.
    0.68-m Schmidt + CCD.
926 Tenagra II Observatory.  Observers M. Schwartz, P. R. Holvorcem.  Measurer
    M. Schwartz.  0.81-m f/7 Ritchey-Chretien + CCD.
958 Observatoire de Dax.  Observers P. Dupouy, J. B. de Vanssay.  Measurer
    P. Dupouy.  0.43-m f/2.7 reflector + CCD.
C43 Hoyerswerda.  Observer P. Lindner.  0.30-m f/6.3 Schmidt-Cassegrain + CCD.
C77 Bernezzo Observatory.  Observer A. Mantero.  0.25-m f/4 reflector + CCD.
H36 Sandlot Observatory, Scranton.  Observer G. Hug.  0.56-m reflector + CCD.
J69 North Observatory, Clanfield.  Observer D. Briggs.  0.41-m f/4.5 Newtonian
    reflector + CCD.
J95 Great Shefford.  Observer P. Birtwhistle.  0.40-m f/6.0 Schmidt-Cassegrain
    + CCD.
T05 ATLAS-HKO, Haleakala.  Observers L. Denneau, A. Heinze, H. Weiland,
    B. Stalder, J. Tonry, A. Sherstyuk.  Measurers L. Denneau, A. Heinze,
    J. Tonry.  0.5-m f/2.0 Schmidt + CCD.
 
Orbital elements:
2016 UP5                                                 Earth MOID = 0.0124 AU
Epoch 2016 July 31.0 TT = JDT 2457600.5                 MPC
M 346.06011              (2000.0)            P               Q
n   0.20669573     Peri.  350.68582     +0.98317719     -0.18102800
a   2.8330117      Node    19.79409     +0.17186597     +0.87178696
e   0.6437074      Incl.    4.11837     +0.06184415     +0.45521024
P   4.77           H   24.4           G   0.15           U   4
Residuals in seconds of arc
161020 T05  0.4-  0.6-    161021 926  0.6-  0.2-    161021 160  0.1+  0.1-
161020 T05  0.5-  1.1+    161021 926  0.3-  0.1-    161021 160  0.1-  0.3-
161020 T05  0.0   0.3-    161021 703  0.7+  0.5-    161021 160  0.2-  0.0
161020 T05  0.5+  0.0     161021 703  0.1+  0.4-    161021 595  0.1+  0.1-
161020 J95  0.3+  0.3-    161021 703  0.3-  0.3+    161021 595  0.3-  0.3-
161020 J95  0.2-  0.2-    161021 703  1.1+  0.1-    161021 104  0.1+  0.3-
161020 J95  0.3-  0.4+    161021 H36  0.1+  0.2-    161021 595  0.1-  0.2-
161020 C43  0.2+  0.4+    161021 H36  0.6+  0.1+    161021 104  0.1-  0.0
161020 C43  0.3+  0.7+    161021 H36  0.1+  0.1-    161021 104  0.0   0.3-
161020 C43  0.6+  0.4+    161021 H36  0.1+  0.3-    161022 958  0.2+  0.3+
161020 J69  0.7+  0.4+    161021 H36  0.3+  0.3-    161022 958  0.2+  0.3+
161020 J69  0.5+  0.4+    161021 926  0.3-  0.1-    161022 958  0.2+  0.2+
161020 J69  0.7+  0.4+    161021 926  0.0   0.0     161022 926  0.1+  0.4+
161021 J95  0.3-  0.4-    161021 926  0.4-  0.0     161022 926  0.4-  0.4+
161021 J95  0.3-  0.2+    161021 C77  0.1-  0.2+    161022 926  0.1-  0.2+
161021 J95  0.1+  0.0     161021 C77  0.2+  0.4+
161021 926  0.4-  0.1-    161021 C77  0.4+  0.2-

Ephemeris:
2016 UP5                 a,e,i = 2.83, 0.64, 4                   q = 1.0094
Date    TT    R. A. (2000) Decl.     Delta      r     Elong.  Phase     V
2016 09 22    18 40 03.8 -39 17 18   0.1210  1.0286    98.5    74.8    22.5
...
2016 10 07    19 55 14.5 -33 33 12   0.05001 1.0094   100.1    77.1    20.6
...
2016 10 15    23 06 33.3 -01 09 42   0.02316 1.0162   145.2    34.1    17.7
...
2016 10 21    02 26 50.2 +33 07 51   0.03667 1.0289   155.4    23.7    18.4
2016 10 22    02 46 59.1 +34 58 45   0.04092 1.0316   152.5    26.5    18.7
2016 10 23    03 03 49.8 +36 17 59   0.04540 1.0345   150.1    28.6    19.0
...
2016 10 29    04 01 55.8 +39 18 28   0.07474 1.0553   144.9    32.8    20.3
...
2016 11 06    04 29 50.0 +39 37 56   0.1170  1.0914   147.2    29.5    21.2
...
2016 11 21    04 41 09.1 +38 19 31   0.2047  1.1803   158.1    18.2    22.3

A. U. Tomatic                (C) Copyright 2016 MPC           M.P.E.C. 2016-U40




More information about the Iaude mailing list